Temp
4 3 3 3 3 4 6 6 8 9 10 10 10 9 10 10 10 9 9 10 10 11 12 11 11 11 10 10 10 10 10 10 10 10 9 9 8 8 7 7 7 7 8 8 8 8 8 8 8
3 2 2 1 3 5 6 7 8 8 8 8 9 8 8 9 8 8 9 10 10 11 11 11 11 11 10 10 10 10 10 10 10 10 9 8 8 7 7 7 7 8 8 8 8 8 7 7 7
2 2 0 2 3 4 7 8 7 8 7 7 7 7 8 8 8 8 9 10 10 10 11 10 10 10 10 10 10 10 10 10 10 9 8 8 8 7 7 7 7 8 8 7 7 7 7 7 7
2 1 -0 2 4 5 5 7 7 7 7 6 7 8 7 7 7 8 9 9 8 9 10 10 8 8 9 9 9 9 9 9 9 8 8 8 7 7 7 7 7 7 7 7 7 7 7 7 6
1 -0 1 2 3 4 5 6 7 6 6 7 6 7 7 6 7 7 8 8 7 7 8 8 8 7 7 8 8 9 9 8 8 8 8 8 7 7 6 6 7 7 7 7 7 6 6 6 6
-1 -1 1 2 3 4 4 5 5 6 6 6 7 7 7 5 7 7 7 8 7 6 6 7 7 7 7 7 8 8 8 7 7 7 7 7 7 7 6 7 7 7 7 7 6 6 6 6 6
-2 -0 1 2 3 4 4 4 5 5 6 6 6 6 7 6 6 7 7 7 7 5 6 6 6 6 7 7 7 7 8 7 6 7 7 6 6 7 7 7 7 7 6 6 6 6 5 5 5
-2 -1 1 1 2 3 4 4 4 4 4 5 5 6 5 5 5 6 6 6 6 6 5 6 5 5 6 7 6 7 7 7 7 7 6 6 7 7 7 6 6 6 6 6 6 5 5 5 5
-3 -2 -0 1 1 2 3 3 4 3 3 4 4 4 5 5 4 6 6 6 6 6 4 5 6 5 5 6 6 7 7 7 7 6 6 6 7 7 6 6 6 6 6 5 5 5 5 5 5
-3 -2 -1 0 1 2 2 2 3 3 3 3 2 3 3 3 4 3 6 5 5 5 5 4 6 6 5 5 6 6 7 7 7 6 6 6 6 6 6 6 6 6 5 5 5 5 5 5 5
-3 -3 -2 -1 0 -0 -1 -0 0 2 2 3 3 3 3 3 4 4 5 6 6 5 4 4 3 5 5 5 5 5 6 7 7 7 6 5 6 6 6 6 6 5 5 5 5 5 5 5 5
-4 -4 -3 -2 -2 -2 -2 -2 -1 0 1 2 2 2 3 3 3 4 4 5 5 5 5 4 5 5 6 4 5 5 6 6 7 7 6 6 6 6 6 6 5 5 5 5 5 5 5 5 5
-5 -5 -4 -3 -3 -3 -3 -3 -3 -2 -1 0 1 1 2 2 2 3 4 4 4 4 4 4 6 4 4 3 4 4 5 6 6 6 6 6 6 6 6 6 5 5 5 5 5 5 5 5 5
-5 -5 -5 -5 -4 -4 -4 -4 -4 -0 -2 -1 1 1 2 2 2 2 3 3 4 3 3 4 5 6 2 2 3 4 4 5 6 6 6 6 6 6 5 5 5 5 5 5 5 5 5 6 5
-6 -6 -6 -5 -5 -5 -4 -4 -4 -0 -1 -1 -0 0 0 1 1 2 3 3 3 3 3 4 4 3 4 2 3 3 4 4 4 5 6 5 6 5 5 5 5 5 5 5 5 5 5 5 5
-6 -6 -5 -4 -4 -4 -5 -4 -2 -2 -2 -1 -1 -0 0 1 2 3 3 2 2 3 2 4 4 4 3 3 2 3 4 4 4 5 5 5 5 5 5 5 5 5 5 5 5 5 6 6 6
-6 -6 -4 -4 -4 -4 -3 -4 -2 -2 -1 -1 -1 0 0 1 2 2 3 3 2 3 2 3 4 3 4 2 2 3 3 4 4 4 4 5 5 5 5 5 5 5 5 5 5 5 5 6 5
-4 -5 -5 -4 -3 -3 -4 -3 -3 -1 -1 -0 -0 -0 0 -0 2 2 3 2 2 1 2 3 3 3 3 2 2 3 3 3 3 4 4 4 5 5 5 5 5 5 5 5 5 5 5 5 5
-7 -6 -5 -4 -4 -5 -4 -3 -2 -2 -1 -0 -0 0 0 -0 2 2 2 2 3 2 2 3 2 3 2 2 2 2 2 3 4 4 4 4 5 4 4 4 4 5 5 5 5 5 5 5 5
-7 -7 -6 -5 -5 -5 -4 -3 -2 -2 -2 -1 -1 -1 -1 -0 2 1 2 1 2 2 2 2 2 2 2 2 1 2 3 3 3 4 4 4 4 4 5 4 5 5 5 5 5 5 5 5 4
-6 -6 -6 -6 -5 -4 -4 -3 -2 -1 -2 -1 -2 -1 -0 0 2 2 1 2 2 2 3 2 2 3 3 3 2 3 2 3 3 3 4 4 4 4 4 4 4 4 5 5 4 4 4 4 4
-5 -5 -5 -5 -5 -3 -3 -1 -1 -1 -1 -1 -1 -0 1 1 1 2 2 2 0 1 2 2 3 3 2 2 2 3 3 3 3 3 3 3 3 3 3 3 3 3 3 4 3 3 4 3 4
-4 -4 -5 -5 -4 -4 -2 -1 -0 -1 -1 -1 -1 0 0 0 2 1 2 3 1 0 1 2 2 2 2 2 2 2 2 2 2 2 2 2 3 2 3 2 3 3 3 3 3 3 2 4 3
-3 -3 -3 -4 -5 -2 -2 -1 -0 -0 -0 -1 -1 -0 1 -0 2 2 1 0 1 1 1 0 1 1 1 1 1 1 1 1 1 2 1 2 2 2 2 2 2 2 2 2 2 2 3 2 1
-2 -2 -1 -2 -1 1 -1 -2 -1 -1 -1 -2 -2 -1 -1 -0 1 -0 0 1 0 1 0 0 1 0 1 2 1 1 1 1 0 1 2 3 2 1 3 2 2 2 2 2 2 1 1 1 2
-3 -3 -1 0 1 -0 -1 -1 -3 -3 -1 -0 -1 -1 -1 -1 -1 0 0 1 1 1 0 1 1 1 1 1 1 2 1 1 2 2 2 2 2 2 2 1 1 2 2 2 1 1 1 2 2
-3 -2 -2 -2 -1 0 -1 -2 -2 -1 -2 -1 -1 -0 -1 0 -0 -0 -0 1 0 -0 0 0 1 1 1 1 2 2 2 1 2 2 2 2 2 2 2 2 2 1 1 1 1 1 1 2 2
-3 -2 -2 -0 1 1 2 0 -2 -3 -3 -1 -1 -0 -0 -1 -0 -0 -0 -0 -0 -0 -0 1 1 1 2 2 2 2 2 2 2 2 2 2 2 2 2 2 2 2 2 2 2 2 1 1 2
-2 -1 -1 -1 1 2 3 -0 -3 -3 -2 -1 -1 -0 -0 -0 -0 -0 -0 -0 -0 -0 0 0 1 1 1 1 2 2 2 1 1 1 1 2 2 2 2 2 2 2 2 2 2 2 2 2 1
-1 -2 -0 1 2 2 3 -1 -3 -3 -1 -1 -1 -1 -1 -1 -0 -1 -1 -0 -1 -1 -1 1 1 1 1 1 1 1 1 1 1 1 1 2 2 2 2 2 2 2 2 2 2 2 1 1 1
Height
3100 3104 3108 3111 3119 3110 3103 3106 3111 3112 3114 3118 3121 3123 3125 3128 3130 3127 3123 3124 3127 3127 3129 3130 3132 3133 3134 3135 3137 3137 3139 3139 3141 3142 3145 3147 3149 3152 3154 3156 3157 3158 3159 3160 3161 3162 3163 3164 3164
3095 3100 3104 3109 3107 3100 3099 3105 3105 3110 3113 3116 3118 3118 3119 3123 3122 3120 3122 3123 3124 3123 3127 3128 3130 3131 3133 3134 3136 3136 3137 3138 3139 3142 3144 3147 3150 3152 3154 3156 3158 3159 3159 3161 3162 3163 3164 3164 3165
3094 3097 3104 3104 3099 3092 3097 3101 3104 3107 3111 3112 3114 3114 3121 3120 3117 3117 3121 3122 3123 3122 3125 3126 3128 3129 3131 3133 3135 3136 3137 3138 3139 3142 3145 3147 3150 3152 3154 3155 3157 3159 3160 3161 3162 3163 3164 3164 3165
3091 3094 3097 3093 3088 3093 3096 3099 3102 3104 3108 3109 3112 3114 3115 3112 3112 3115 3118 3121 3121 3122 3123 3125 3126 3128 3129 3131 3133 3135 3136 3138 3140 3142 3145 3147 3149 3151 3153 3155 3156 3158 3160 3161 3162 3163 3165 3166 3166
3087 3092 3090 3085 3085 3091 3094 3096 3098 3100 3104 3106 3109 3111 3112 3108 3111 3113 3115 3119 3119 3122 3120 3123 3125 3127 3128 3129 3131 3133 3136 3138 3140 3142 3145 3146 3149 3151 3153 3154 3156 3158 3160 3161 3163 3164 3165 3166 3167
3085 3086 3084 3080 3084 3087 3090 3093 3094 3096 3100 3102 3106 3108 3111 3100 3105 3108 3110 3111 3113 3121 3119 3120 3123 3124 3126 3128 3130 3132 3135 3137 3140 3143 3144 3146 3147 3150 3153 3155 3156 3158 3160 3162 3163 3165 3166 3167 3168
3079 3083 3077 3078 3080 3083 3086 3089 3090 3092 3095 3098 3103 3104 3108 3102 3102 3104 3105 3108 3111 3114 3116 3117 3119 3122 3123 3126 3129 3131 3133 3136 3140 3142 3143 3144 3146 3149 3152 3155 3157 3158 3160 3162 3164 3165 3166 3168 3169
3077 3077 3074 3075 3077 3078 3083 3085 3086 3088 3089 3095 3098 3098 3101 3103 3096 3101 3102 3103 3105 3107 3100 3109 3115 3120 3122 3124 3126 3129 3131 3135 3138 3141 3143 3143 3146 3148 3151 3154 3156 3159 3160 3162 3164 3165 3167 3168 3169
3069 3071 3068 3071 3074 3076 3079 3080 3082 3084 3085 3088 3091 3094 3098 3094 3088 3095 3098 3098 3100 3101 3107 3111 3110 3116 3121 3123 3124 3126 3129 3132 3135 3138 3141 3142 3145 3148 3150 3153 3156 3158 3160 3161 3164 3165 3167 3167 3169
3064 3063 3063 3070 3071 3073 3074 3075 3077 3079 3080 3082 3084 3086 3090 3085 3085 3087 3093 3095 3098 3099 3103 3109 3105 3111 3115 3119 3120 3123 3126 3129 3131 3135 3139 3141 3144 3147 3149 3153 3155 3158 3160 3162 3163 3165 3166 3167 3168
3058 3055 3061 3065 3067 3066 3066 3066 3070 3072 3073 3077 3081 3082 3085 3086 3084 3086 3090 3093 3097 3098 3101 3101 3100 3103 3106 3111 3116 3119 3123 3126 3129 3132 3136 3140 3142 3145 3149 3151 3154 3157 3159 3161 3163 3164 3165 3167 3167
3052 3053 3055 3058 3060 3061 3061 3064 3062 3065 3068 3073 3075 3074 3075 3080 3077 3079 3083 3090 3094 3097 3096 3095 3100 3099 3097 3099 3110 3116 3120 3123 3126 3130 3134 3137 3140 3144 3148 3150 3153 3156 3158 3160 3162 3163 3164 3165 3166
3047 3047 3049 3052 3052 3052 3055 3055 3056 3055 3060 3064 3067 3067 3071 3074 3075 3076 3079 3083 3086 3089 3092 3092 3094 3095 3090 3095 3108 3111 3116 3121 3124 3128 3132 3136 3139 3143 3146 3149 3152 3154 3157 3158 3160 3161 3162 3163 3163
3045 3043 3043 3044 3044 3046 3047 3046 3049 3047 3055 3057 3059 3061 3064 3067 3072 3072 3074 3077 3081 3084 3088 3089 3089 3092 3091 3095 3101 3108 3113 3118 3122 3126 3130 3134 3138 3141 3144 3147 3150 3152 3154 3156 3157 3159 3160 3160 3161
3038 3036 3036 3036 3037 3037 3041 3037 3035 3043 3048 3050 3054 3057 3060 3060 3065 3068 3070 3072 3075 3079 3082 3083 3082 3085 3085 3092 3098 3104 3109 3115 3118 3123 3128 3132 3135 3139 3142 3145 3147 3149 3152 3153 3154 3156 3157 3158 3158
3035 3035 3032 3031 3032 3032 3035 3027 3034 3038 3041 3042 3047 3051 3054 3054 3058 3063 3066 3069 3071 3068 3074 3079 3081 3084 3087 3092 3094 3102 3107 3111 3116 3120 3125 3129 3133 3137 3140 3142 3144 3146 3148 3150 3151 3153 3154 3155 3155
3032 3028 3028 3026 3028 3029 3028 3026 3027 3032 3035 3036 3040 3046 3049 3049 3053 3056 3060 3066 3065 3066 3072 3076 3079 3081 3083 3087 3093 3100 3103 3107 3112 3116 3120 3125 3130 3133 3137 3139 3141 3143 3144 3146 3148 3149 3150 3151 3152
3027 3025 3023 3022 3025 3024 3022 3022 3021 3026 3028 3032 3036 3041 3044 3045 3046 3051 3055 3061 3063 3063 3065 3069 3074 3077 3080 3083 3090 3095 3099 3102 3106 3111 3117 3122 3125 3130 3133 3135 3137 3139 3140 3141 3143 3144 3145 3146 3147
3024 3023 3019 3019 3020 3018 3016 3015 3018 3022 3023 3027 3032 3037 3039 3041 3042 3046 3049 3056 3058 3061 3062 3067 3070 3072 3074 3078 3085 3090 3095 3099 3103 3108 3112 3116 3120 3124 3126 3129 3131 3133 3136 3136 3138 3139 3140 3141 3142
3019 3016 3011 3011 3013 3014 3011 3010 3014 3018 3020 3022 3025 3029 3032 3035 3036 3044 3047 3050 3053 3058 3061 3063 3063 3066 3068 3072 3080 3086 3092 3096 3100 3104 3108 3110 3114 3117 3120 3123 3125 3128 3130 3131 3133 3134 3135 3136 3137
3011 3008 3005 3007 3009 3005 3007 3008 3011 3014 3016 3019 3022 3024 3028 3030 3033 3038 3042 3046 3047 3049 3051 3056 3060 3062 3065 3067 3074 3076 3085 3089 3096 3101 3103 3107 3111 3114 3115 3118 3121 3122 3124 3126 3127 3128 3128 3129 3129
3004 3000 2999 3002 3006 3002 3002 3002 3007 3010 3013 3016 3020 3021 3025 3026 3027 3034 3038 3041 3044 3043 3048 3054 3057 3060 3062 3065 3070 3073 3079 3084 3090 3094 3100 3102 3105 3107 3110 3112 3114 3116 3118 3119 3121 3123 3119 3120 3122
3001 2997 2996 2999 3001 2998 2999 3000 3002 3009 3012 3015 3016 3018 3020 3021 3026 3028 3033 3038 3041 3042 3044 3050 3051 3056 3059 3063 3065 3068 3071 3076 3083 3084 3089 3093 3098 3099 3101 3104 3107 3110 3111 3111 3112 3111 3111 3102 3112
2998 2997 2998 3000 2999 2999 2995 2998 3003 3007 3009 3010 3012 3013 3016 3019 3022 3024 3030 3031 3034 3036 3039 3042 3046 3050 3054 3057 3060 3063 3069 3072 3076 3077 3080 3085 3090 3095 3097 3096 3098 3102 3104 3106 3106 3105 3105 3107 3104
3002 2998 2999 2998 2990 2993 2996 2993 3003 3004 3005 3007 3009 3010 3012 3018 3023 3024 3026 3029 3031 3032 3036 3042 3046 3049 3052 3056 3058 3063 3065 3069 3073 3075 3073 3086 3077 3091 3094 3087 3089 3091 3094 3099 3096 3098 3099 3100 3101
3003 3001 2998 2993 2991 2997 2996 2996 3001 3004 3004 3007 3008 3010 3012 3019 3024 3024 3027 3030 3030 3035 3039 3043 3048 3051 3055 3056 3058 3061 3063 3067 3068 3070 3073 3076 3081 3085 3084 3083 3083 3084 3085 3087 3090 3092 3094 3095 3097
3004 3002 3001 3000 2998 2996 2998 3001 3003 3001 3005 3007 3009 3012 3016 3019 3021 3028 3028 3030 3032 3036 3041 3045 3048 3051 3055 3057 3062 3062 3062 3062 3065 3068 3069 3072 3076 3078 3078 3080 3081 3084 3084 3081 3084 3086 3088 3089 3092
3009 3007 3006 3002 2997 2997 2999 3003 3009 3006 3007 3009 3009 3013 3018 3023 3028 3029 3031 3030 3034 3038 3040 3046 3049 3052 3053 3055 3058 3055 3057 3059 3063 3064 3067 3068 3071 3073 3073 3075 3076 3077 3077 3078 3079 3081 3082 3085 3088
3014 3011 3008 3006 3004 3001 2998 3014 3015 3013 3011 3011 3013 3016 3020 3023 3025 3028 3031 3031 3035 3039 3042 3045 3047 3049 3051 3054 3053 3052 3056 3057 3058 3060 3063 3063 3064 3068 3067 3068 3068 3070 3071 3074 3075 3076 3077 3080 3082
3016 3016 3013 3009 3009 3006 3006 3023 3020 3017 3016 3018 3020 3020 3022 3023 3026 3028 3032 3034 3037 3037 3041 3045 3047 3049 3049 3050 3050 3050 3052 3052 3054 3057 3058 3058 3060 3061 3061 3060 3061 3063 3065 3066 3068 3071 3073 3075 3077
Wind_Speed
21 21 22 20 16 22 33 35 28 22 27 26 27 21 24 20 25 17 13 16 25 24 18 19 18 16 15 13 13 13 13 14 15 16 18 21 22 19 16 17 15 9 7 7 9 9 8 9 9
20 22 21 16 25 31 31 26 30 26 19 20 22 25 17 21 21 20 14 13 20 25 21 20 19 18 16 15 14 13 13 14 15 16 18 20 20 19 18 16 14 10 9 11 11 10 10 10 10
19 21 16 19 34 39 28 20 23 25 21 18 19 24 22 22 28 30 25 16 15 23 21 22 20 18 17 16 15 14 14 14 15 19 19 19 20 20 19 16 13 11 12 13 12 12 11 12 11
19 20 20 30 30 27 33 24 17 24 20 18 21 25 28 29 22 29 32 25 16 17 24 23 20 18 18 17 16 15 16 15 19 22 22 19 20 20 19 17 15 15 16 15 14 13 12 12 11
20 15 25 27 32 28 19 25 25 23 26 27 19 27 21 27 34 31 31 33 27 18 26 23 20 20 18 18 17 17 18 20 23 24 23 21 21 20 19 17 17 18 18 15 14 14 13 12 10
16 18 25 32 30 24 28 21 24 31 25 27 26 21 26 23 34 32 37 36 37 20 25 24 25 23 21 18 18 20 21 24 25 23 25 24 22 21 19 19 20 20 18 16 15 13 12 11 9
19 22 29 28 26 25 25 24 28 28 30 29 25 26 24 29 29 26 26 37 40 39 28 26 27 25 23 20 20 23 24 27 25 25 25 24 24 22 22 22 22 20 18 17 15 14 12 10 8
16 22 30 29 28 29 21 24 26 29 30 28 28 32 29 23 34 28 26 30 38 46 28 31 25 24 22 21 22 25 26 30 31 28 23 25 24 24 25 24 23 20 19 17 15 14 11 8 6
17 22 31 27 25 24 21 26 26 27 30 29 29 28 29 27 32 34 28 31 30 29 39 25 28 25 22 24 25 27 29 32 35 32 31 25 24 26 27 26 24 22 20 18 16 13 10 7 5
22 23 29 23 20 23 20 22 24 26 29 29 24 28 24 35 34 21 38 33 30 30 26 37 31 29 23 28 28 29 30 32 36 37 31 27 28 29 30 26 25 23 20 18 16 12 9 7 6
20 30 23 21 21 24 21 20 19 24 28 25 24 30 29 28 38 34 33 36 35 30 25 42 37 29 33 34 31 29 32 32 34 36 35 30 31 32 29 27 26 23 21 19 16 13 10 9 8
26 24 23 25 25 23 25 24 24 23 25 23 20 27 31 34 27 33 31 31 30 28 23 29 47 40 25 37 34 31 31 32 33 35 35 35 34 31 29 28 26 24 21 18 15 13 11 10 9
21 22 25 24 25 27 27 30 28 30 24 21 26 22 34 32 22 33 27 30 25 22 25 24 29 46 12 31 33 31 30 32 32 33 35 35 33 32 31 29 27 24 21 18 16 14 13 12 11
17 17 20 22 25 26 27 30 26 36 25 26 30 29 31 33 29 23 30 28 26 23 24 18 20 33 35 33 34 33 32 32 34 34 35 35 34 33 32 30 28 25 22 20 17 16 15 14 13
18 24 26 28 28 30 22 32 37 36 31 27 24 28 25 30 34 34 27 27 29 22 23 23 17 24 32 34 39 33 34 33 35 35 36 36 36 35 34 31 28 26 23 21 19 18 18 17 16
20 22 26 24 22 26 26 35 26 24 29 32 29 26 25 31 29 41 36 27 26 28 13 13 14 12 29 44 40 30 34 34 33 36 37 37 37 36 34 32 29 26 24 22 21 20 20 20 20
14 22 22 23 18 20 22 30 30 25 21 28 29 25 25 29 28 31 43 28 33 34 20 19 18 17 20 31 41 31 31 34 35 36 38 38 37 35 33 31 29 27 26 25 23 23 23 23 23
15 17 20 22 15 19 20 27 28 14 24 22 25 25 25 25 31 31 45 33 33 29 23 18 24 21 22 20 39 32 31 34 37 40 39 37 35 34 33 31 30 29 28 26 26 26 26 25 25
21 23 28 26 22 23 22 28 23 22 19 22 22 21 24 22 33 30 39 33 32 29 25 25 24 21 34 26 49 37 34 31 34 37 38 36 36 34 35 33 30 31 31 28 30 30 30 28 28
24 27 32 31 24 24 25 28 22 20 20 20 26 23 19 22 33 31 33 34 35 42 38 29 27 23 35 36 48 38 36 34 33 35 34 35 37 36 37 35 33 33 34 35 33 32 31 30 29
30 34 35 32 20 18 16 22 21 20 22 16 18 22 21 28 32 34 29 33 34 43 37 35 32 31 30 27 51 35 40 38 39 35 36 34 34 32 33 33 32 33 38 31 30 31 33 33 33
30 30 27 22 16 11 21 10 21 19 18 15 17 20 11 26 28 26 33 30 42 15 42 42 36 33 28 22 41 34 39 38 36 38 41 36 34 33 34 36 36 36 34 34 34 39 36 29 33
15 13 10 16 16 12 21 6 20 20 17 13 13 22 20 18 28 16 23 33 27 20 28 41 40 32 28 25 25 48 42 39 40 35 42 42 41 35 37 39 39 44 43 42 38 40 33 35 37
12 4 7 15 19 6 4 2 13 9 5 5 14 18 21 19 18 22 17 14 11 15 21 25 13 29 28 17 17 27 56 45 35 25 46 39 41 47 43 50 49 52 51 40 46 39 28 35 20
8 7 5 6 6 3 2 2 11 3 7 10 8 11 20 27 20 14 18 18 13 15 12 12 9 7 18 15 5 13 16 22 7 9 25 57 29 45 32 27 35 42 27 51 20 27 17 16 17
11 11 8 2 2 3 3 4 6 10 7 8 12 10 19 25 19 12 15 20 19 20 19 16 15 11 1 3 7 10 8 6 6 7 5 7 10 15 17 14 14 18 21 27 31 18 17 11 11
10 11 6 3 1 3 3 7 17 11 18 13 18 18 15 21 18 6 15 18 15 11 10 6 3 4 7 9 14 14 12 11 11 11 11 13 16 16 17 17 18 19 18 15 17 17 17 18 19
11 11 6 4 3 5 7 16 13 15 16 14 18 17 18 17 16 14 13 16 15 13 10 6 6 7 10 12 14 15 16 16 16 16 18 19 20 21 21 19 20 19 18 19 22 20 14 18 23
11 14 7 6 4 3 4 7 11 10 11 11 14 15 19 20 19 18 17 17 14 13 9 4 6 7 9 11 12 13 16 18 19 21 23 23 23 24 23 24 22 23 22 22 22 22 18 18 18
12 13 14 8 9 7 16 8 7 9 12 17 16 15 17 16 13 14 14 12 8 8 7 8 9 9 10 12 13 14 16 19 21 24 24 25 27 28 29 28 27 27 26 25 24 23 23 23 21
Wind_Direction
228 225 221 218 217 230 238 237 239 241 234 237 235 251 237 231 233 216 221 238 241 245 243 227 232 219 209 207 204 199 199 193 197 195 190 183 185 186 183 173 174 174 177 172 161 156 148 141 132
222 220 218 216 227 233 238 237 234 236 230 242 229 236 222 226 228 217 233 232 228 237 230 221 226 220 212 207 206 201 200 195 191 186 177 178 189 187 181 184 192 188 183 167 163 159 154 144 138
226 218 214 224 230 236 239 239 234 230 228 234 226 229 223 233 232 227 236 236 239 229 226 219 219 219 211 210 205 201 197 193 185 170 167 175 189 191 188 188 188 186 173 167 167 163 157 148 143
219 220 220 225 231 238 237 233 241 225 226 230 225 233 233 231 226 233 234 226 261 243 227 217 215 215 214 210 205 199 191 188 177 167 174 183 187 191 191 189 186 176 172 172 170 165 158 149 143
211 216 230 237 238 237 239 238 231 234 231 228 238 235 242 244 242 240 238 241 250 252 220 207 208 216 217 211 204 198 187 175 170 171 179 185 186 191 192 191 182 174 174 173 173 163 158 151 147
219 216 234 238 244 246 240 233 232 232 235 230 233 238 237 255 242 246 244 242 248 226 212 204 205 211 214 217 206 196 189 178 174 174 183 186 187 192 197 189 179 176 175 174 171 166 160 155 150
217 232 240 247 251 249 244 237 237 235 233 234 231 238 239 255 259 239 242 241 240 234 210 210 206 212 211 212 207 196 191 183 178 183 188 192 189 190 189 183 180 178 178 175 171 167 162 158 155
230 235 247 247 249 251 244 241 238 237 238 239 237 241 243 256 253 243 247 232 242 240 206 197 213 214 216 209 206 199 194 189 186 187 189 196 187 185 182 182 182 181 178 176 174 169 165 164 168
236 237 243 245 247 253 249 245 240 243 243 240 239 241 232 252 248 239 242 238 250 245 237 206 210 215 217 215 206 204 200 194 194 191 192 194 189 185 183 184 184 181 178 176 174 172 174 180 196
230 238 242 247 249 253 250 245 243 242 242 244 242 236 223 239 231 230 232 246 254 257 272 246 218 203 206 221 208 208 204 200 199 198 195 193 190 185 187 186 184 181 178 176 175 181 192 207 221
241 243 245 250 250 247 249 247 244 241 241 240 245 239 238 252 248 242 234 237 248 259 258 257 239 195 191 218 205 207 204 204 202 203 199 197 192 188 188 187 186 182 178 180 187 197 208 225 238
250 251 252 253 249 254 253 254 256 243 241 237 245 234 226 225 258 242 243 235 238 236 259 270 260 192 213 198 200 204 204 202 202 200 197 196 192 190 188 187 185 184 186 190 199 210 222 234 245
254 259 257 258 256 253 253 251 253 246 242 239 243 249 229 234 237 240 238 235 231 247 257 277 241 236 214 192 200 198 201 202 199 197 194 192 191 191 190 187 187 189 193 202 211 223 232 239 241
261 262 260 257 258 254 253 255 252 246 250 244 223 239 235 227 230 236 238 241 230 234 246 259 244 250 246 204 201 198 200 201 198 196 194 193 193 191 190 191 193 198 205 215 222 232 238 242 244
267 270 270 264 261 256 257 258 249 248 240 241 244 243 246 240 227 234 237 243 228 226 235 268 247 236 252 210 195 202 198 202 201 198 197 196 194 194 196 199 205 211 218 225 232 240 245 247 248
276 272 270 263 260 254 243 256 255 258 245 243 237 240 242 238 241 232 240 233 240 237 231 232 211 209 222 226 187 205 204 202 204 202 201 201 200 202 205 209 215 220 227 235 242 249 252 251 251
260 264 266 277 258 252 247 254 260 250 236 241 236 240 243 237 231 223 231 241 252 224 208 214 220 215 217 218 194 206 203 205 203 206 207 205 207 210 214 219 224 230 234 241 249 254 256 256 255
264 260 274 269 272 255 255 251 252 244 230 233 231 235 240 238 232 223 227 246 249 252 213 203 222 227 231 222 194 208 210 206 205 206 209 211 213 217 221 226 231 236 241 247 252 255 257 257 257
266 270 271 270 274 274 252 245 249 235 238 219 227 224 232 237 233 229 228 245 242 232 232 215 219 243 236 219 200 207 210 213 209 209 211 214 216 220 225 230 235 241 246 251 253 256 257 257 258
265 263 265 276 272 261 248 247 242 229 233 217 216 219 228 234 229 227 232 239 236 231 231 218 218 239 241 233 200 208 215 214 217 213 212 217 220 222 225 230 235 242 245 253 255 258 258 258 257
265 261 265 266 270 248 233 236 226 219 220 225 217 224 235 234 236 226 233 237 247 232 233 212 222 218 216 212 202 214 208 211 219 218 217 219 222 226 231 234 237 241 246 252 255 260 260 258 255
271 278 270 252 243 232 201 207 206 208 219 224 229 228 260 242 246 238 241 252 248 225 220 212 206 214 217 213 207 206 210 210 217 222 226 227 229 231 238 241 242 247 246 254 253 251 250 251 253
301 304 209 199 222 253 201 165 185 200 220 221 219 233 248 250 241 244 231 248 255 221 211 213 209 216 211 206 212 221 219 217 223 228 227 233 234 242 248 253 252 253 247 252 255 259 256 251 262
308 132 133 208 221 230 173 100 151 169 180 200 203 221 228 219 228 232 213 196 187 241 262 219 223 220 221 229 231 226 219 225 245 245 244 242 245 236 256 264 248 255 262 255 259 267 253 246 272
351 311 173 210 197 102 174 246 67 320 224 193 179 207 197 193 211 167 172 176 159 154 161 182 170 187 195 218 228 231 226 201 228 271 247 236 259 234 293 260 245 240 267 253 271 246 266 291 268
323 331 358 341 97 104 206 59 25 46 105 155 141 169 182 190 194 221 193 171 163 160 162 169 169 170 167 256 247 227 221 230 257 273 252 223 246 270 282 286 271 274 268 251 251 250 262 282 275
327 357 22 14 129 187 79 111 59 37 90 132 139 174 169 178 153 193 173 169 146 118 129 124 158 202 230 244 257 257 250 236 242 247 258 261 258 259 266 266 265 261 264 258 259 270 246 265 249
26 9 355 323 360 61 72 58 34 32 99 134 128 152 171 183 212 207 191 140 131 132 132 147 197 228 240 241 242 252 256 254 250 252 259 261 262 259 256 256 261 270 269 264 261 262 252 250 249
6 13 334 317 10 355 96 60 27 55 77 114 134 139 170 194 186 191 211 153 142 153 153 194 229 229 241 248 248 249 249 252 254 256 259 262 263 263 264 266 264 263 265 263 261 256 241 239 235
24 10 13 0 27 22 92 57 59 77 124 125 102 116 132 134 151 140 143 140 132 129 160 206 227 243 246 252 254 254 257 258 257 258 259 260 260 261 262 264 263 262 260 260 259 254 242 240 239